Location: Aragoneses
(41.0275°N, 4.3847°W)
Time: 21:22:13
(UTC+00:00)

AQUARIUS - Pass Details

Date: 11 December 2025
Orbit: 634 x 635 km, 98.0° (Epoch: 12 January)

Event Time Altitude Azimuth Distance (km) Brightness Sun altitude
Rises 18:02:39 0° 164° (SSE) 2,919 7.6 -13.4°
Reaches altitude 10° 18:04:50 10° 164° (SSE) 2,015 6.7 -13.8°
Maximum altitude 18:09:13 84° 78° (ENE) 644 4.0 -14.6°
Drops below altitude 10° 18:13:40 10° 349° (NNW) 2,030 6.6 -15.4°
Sets 18:15:52 0° 348° (NNW) 2,943 7.5 -15.8°
